Weather in Insar

Russia / Republic of Mordovia     53°51′59″N   44°22′20″E
temp.,
°C
wind,
m/s
gust,
m/s
humid.,
%
clouds,
%
prec.,
mm/h
press.,
hPa
HPBL,
m
28 july, wed
wed2800:00+17e11705 0.0 101811
03:00+16w11693 0.0 101811
06:00+17nnw23719 0.0 101788
09:00+22n22571 0.0 1017501
12:00+25nnw34474 0.0 10161585
15:00+26nw344178 0.0 10152253
18:00+25nne0153100 0.0 101412
21:00+21sse2253100 0.0 101417
29 july, thu
thu2900:00+17wsw3487100 0.3 101475
03:00+17wsw2483100 0.3 101380
06:00+18se3782100 0.1 1011160
09:00+18sse5128089 0.8 1009370
12:00+25sw81056100 0.1 10071347
15:00+25w61055100 0.3 1005832
18:00+25nw695942 0.0 1005992
21:00+19nw358427 0.0 100780
30 july, fri
fri3000:00+17wnw339293 0.0 100748
03:00+16wsw229113 0.0 100829
06:00+19sw238064 0.0 100895
09:00+25sw465729 0.0 1008590
12:00+29wsw574143 0.0 10072522
15:00+26ssw485659 0.0 1006293
18:00+24w9126399 0.3 1007772
21:00+19sse2295100 2.8 100637
31 july, sat
sat3100:00+18s3695100 0.1 1006145
03:00+17wsw3496100 0.2 100679
06:00+18nw259581 0.0 1006174
09:00+23wnw46747 0.0 1007852
12:00+26wnw67490 0.1 10081804
15:00+27wnw674047 0.1 10082304
18:00+26wsw35500 0.0 1008164
21:00+22sw365378 0.0 1009103
1 august, sun
sun100:00+20wsw225986 0.0 101022
03:00+18sw226278 0.0 101011
06:00+19sw23654 0.0 101171
09:00+25wsw46514 0.0 1012571
12:00+29wsw57404 0.0 10111928
15:00+30sw57330 0.0 10102382
18:00+28ssw47450 0.0 1009186
21:00+23s47510 0.0 101088